Simultaneous Nadir Overpasses (SNOs) Predictions

Prediction of SNOs between LANDSAT-8 and NOAA-19 Satellite Orbit:

Table of predicted SNOs for the next 14.0 days since TLE Epoch: 4/14/2014
Index Date (LANDSAT-8) Time (LANDSAT-8) Lat,Lon (LANDSAT-8) SZA (LANDSAT-8 ) Date (NOAA-19) Time (NOAA-19) Lat,Lon (NOAA-19) SZA (NOAA-19 ) Distance(km) Time Diff (sec)
1 04/16/2014 16:26:08 72.62, -66.31 62.26 04/16/2014 16:25:02 72.65, -69.13 62.32 93.70 66
2 04/16/2014 17:15:51 -71.81, 99.88 118.56 04/16/2014 17:15:49 -71.78, 99.84 118.59 2.98 2
3 04/16/2014 18:05:28 71.16, -93.54 60.79 04/16/2014 18:06:36 71.14, -91.73 60.75 65.16 68
4 04/18/2014 22:00:04 -71.84, 28.87 119.30 04/18/2014 21:59:45 -71.83, 28.79 119.31 2.91 19
5 04/18/2014 22:49:32 71.68,-163.76 60.53 04/18/2014 22:50:42 71.68,-163.67 60.53 3.16 70
6 04/21/2014 02:44:17 -71.85, -42.18 120.05 04/21/2014 02:43:40 -71.84, -42.19 120.05 0.95 37
7 04/21/2014 03:33:44 71.74, 125.28 59.84 04/21/2014 03:34:38 71.72, 125.30 59.81 2.99 54
8 04/23/2014 07:28:30 -71.84,-113.26 120.80 04/23/2014 07:27:35 -71.86,-113.18 120.77 3.56 55
9 04/23/2014 08:17:56 71.78, 54.29 59.14 04/23/2014 08:18:34 71.76, 54.26 59.12 2.81 38
10 04/25/2014 12:12:41 -71.92, 175.81 121.44 04/25/2014 12:11:30 -71.89, 175.81 121.47 3.05 71
11 04/25/2014 13:02:08 71.81, -16.73 58.44 04/25/2014 13:02:30 71.81, -16.80 58.45 2.35 22
12 04/27/2014 16:56:44 -72.40, 105.61 121.66 04/27/2014 16:55:35 -72.43, 103.78 121.62 61.72 69
13 04/27/2014 17:46:20 71.81, -87.79 57.73 04/27/2014 17:46:25 71.83, -87.77 57.75 2.16 5




NCC Satellite Simultaneous Nadir Overpasses (SNOs) Prediction Service
